Weather History for KBFM - March, 2012

Change the Weather History Date:

Sunday, March 18, 2012

  Actual Average Record
Temperature  
Mean Temperature 70 °F -  
Max Temperature 80 °F 67 °F 80 °F (2012)
Min Temperature 62 °F 48 °F 44 °F (2014)
Cooling Degree Days 6    
Growing Degree Days 20 (Base 50)    
Moisture  
Dew Point 65 °F    
Average Humidity 90    
Maximum Humidity 100    
Minimum Humidity 58    
Precipitation  
Precipitation 0.01 in - - ()
Sea Level Pressure  
Sea Level Pressure 30.20 in    
Wind  
Wind Speed 3 mph (SE)    
Max Wind Speed 14 mph    
Max Gust Speed 20 mph    
Visibility 5 miles    
Events Fog , Rain    
Averages and records for this station are not official NWS values.
T = Trace of Precipitation, MM = Missing Value Source: NWS Daily Summary

Daily Weather History Graph

Daily Weather History Graph

Search for Another Location

Airport or City:

Trip Planner

Search our weather history database for the weather conditions in past years. The results will help you decide how hot, cold, wet, or windy it might be!

Date:

Astronomy

Mar. 18, 2012 Rise Set
Actual Time 6:57 AM CDT 7:02 PM CDT
Civil Twilight 6:33 AM CDT 7:26 PM CDT
Nautical Twilight 6:05 AM CDT 7:54 PM CDT
Astronomical Twilight 5:37 AM CDT 8:23 PM CDT
Moon 4:22 AM CDT (3/18) 3:41 PM CDT (3/18)
Length of Visible Light 12h 52m
Length of Day
12h 04m
Waning Crescent, 15% of the Moon is Illuminated
Mar 18
Waning Crescent
Mar 22
New
Mar 30
First Quarter
Apr 6
Full
Apr 13
Last Quarter

Hourly Weather History & Observations

Time (CDT) Temp. Dew Point Humidity Pressure Visibility Wind Dir Wind Speed Gust Speed Precip Events Conditions
12:53 AM 68.0 °F 66.0 °F 93% 30.19 in 9.0 mi Calm Calm - N/A   Clear
1:36 AM 64.4 °F 64.4 °F 100% 30.20 in 1.5 mi Calm Calm - N/A   Clear
1:39 AM 64.4 °F 62.6 °F 94% 30.20 in 0.8 mi Calm Calm - N/A   Mist
1:51 AM 62.6 °F 62.6 °F 100% 30.20 in 1.0 mi Calm Calm - N/A   Clear
1:52 AM 64.0 °F 62.1 °F 93% 30.19 in 1.2 mi Calm Calm - N/A   Clear
2:01 AM 62.6 °F 62.6 °F 100% 30.19 in 2.0 mi South 3.5 mph - N/A   Clear
2:10 AM 64.4 °F 64.4 °F 100% 30.19 in 10.0 mi South 3.5 mph - N/A   Clear
2:53 AM 63.0 °F 61.0 °F 93% 30.18 in 3.0 mi Calm Calm - N/A   Clear
2:55 AM 62.6 °F 60.8 °F 94% 30.18 in 1.5 mi Calm Calm - N/A   Clear
2:57 AM 62.6 °F 60.8 °F 94% 30.18 in 1.0 mi Calm Calm - N/A   Mist
3:04 AM 62.6 °F 62.6 °F 100% 30.18 in 0.5 mi Calm Calm - N/A Fog Fog
3:21 AM 62.6 °F 62.6 °F 100% 30.18 in 0.2 mi Calm Calm - N/A Fog Fog
3:40 AM 62.6 °F 62.6 °F 100% 30.17 in 0.5 mi Calm Calm - 0.01 in Fog Fog
3:53 AM 62.1 °F 61.0 °F 96% 30.17 in 0.2 mi NW 3.5 mph - 0.01 in Fog Fog
4:20 AM 62.6 °F 60.8 °F 94% 30.17 in 0.2 mi Calm Calm - N/A Fog Fog
4:53 AM 64.9 °F 64.0 °F 97% 30.17 in 0.5 mi Calm Calm - N/A Fog Fog
5:07 AM 64.4 °F 64.4 °F 100% 30.17 in 1.5 mi Calm Calm - N/A   Overcast
5:33 AM 66.2 °F 64.4 °F 94% 30.18 in 0.5 mi ENE 3.5 mph - N/A Fog Fog
5:43 AM 66.2 °F 66.2 °F 100% 30.18 in 0.2 mi East 4.6 mph - N/A Fog Fog
5:53 AM 66.9 °F 66.0 °F 97% 30.19 in 0.2 mi East 5.8 mph - N/A Fog Fog
6:53 AM 64.9 °F 64.0 °F 97% 30.21 in 0.2 mi NE 4.6 mph - N/A Fog Fog
7:53 AM 64.9 °F 64.0 °F 97% 30.23 in 0.2 mi NE 3.5 mph - N/A Fog Fog
8:00 AM 64.4 °F 64.4 °F 100% 30.23 in 0.5 mi ENE 3.5 mph - N/A Fog Fog
8:40 AM 66.2 °F 64.4 °F 94% 30.24 in 5.0 mi ENE 4.6 mph - N/A   Mostly Cloudy
8:53 AM 66.9 °F 64.9 °F 93% 30.25 in 5.0 mi ENE 4.6 mph - N/A   Mostly Cloudy
9:53 AM 72.0 °F 68.0 °F 87% 30.26 in 10.0 mi ESE 8.1 mph - N/A   Mostly Cloudy
10:31 AM 71.6 °F 66.2 °F 83% 30.26 in 10.0 mi ESE 9.2 mph - N/A   Mostly Cloudy
10:53 AM 72.0 °F 66.9 °F 84% 30.27 in 10.0 mi SE 6.9 mph - N/A   Mostly Cloudy
11:31 AM 75.2 °F 66.2 °F 73% 30.27 in 10.0 mi SSE 5.8 mph - 0.00 in Rain Light Rain
11:53 AM 75.0 °F 66.9 °F 76% 30.26 in 10.0 mi SE 4.6 mph - 0.00 in   Scattered Clouds
12:53 PM 77.0 °F 64.9 °F 66% 30.23 in 10.0 mi SE 8.1 mph - N/A   Scattered Clouds
1:53 PM 79.0 °F 63.0 °F 58% 30.21 in 10.0 mi SSE 8.1 mph - N/A   Scattered Clouds
2:53 PM 78.1 °F 66.0 °F 66% 30.19 in 10.0 mi South 12.7 mph - N/A   Partly Cloudy
3:53 PM 75.9 °F 66.0 °F 71% 30.19 in 10.0 mi South 13.8 mph 19.6 mph N/A   Partly Cloudy
4:53 PM 75.2 °F 66.2 °F 73% 30.18 in 10.0 mi South 10.4 mph - N/A   Partly Cloudy
5:53 PM 73.9 °F 66.9 °F 79% 30.18 in 10.0 mi SSE 9.2 mph - N/A   Partly Cloudy
6:53 PM 72.0 °F 66.9 °F 84% 30.18 in 10.0 mi South 5.8 mph - N/A   Clear
7:53 PM 71.1 °F 66.9 °F 87% 30.18 in 10.0 mi South 5.8 mph - N/A   Partly Cloudy
8:53 PM 71.1 °F 66.9 °F 87% 30.18 in 10.0 mi South 3.5 mph - N/A   Clear
9:53 PM 70.0 °F 66.9 °F 90% 30.19 in 10.0 mi South 3.5 mph - N/A   Clear
10:53 PM 69.1 °F 66.9 °F 93% 30.18 in 10.0 mi SSE 3.5 mph - N/A   Clear
11:53 PM 68.0 °F 66.0 °F 93% 30.17 in 10.0 mi SSE 4.6 mph - N/A   Clear